Location: Newark
(3.0500°N, 36.0167°E)
Time: 10:04:33
(UTC+00:00)

Transit 2A Rocket - Pass Details

Date: 21 August 2019
Orbit: 594 x 909 km, 66.7° (Epoch: 20 October)

Event Time Altitude Azimuth Distance (km) Brightness Sun altitude
Rises 04:15:31 0° 316° (NW) 2,818 7.6 9.5°
Reaches altitude 10° 04:18:10 10° 299° (WNW) 1,917 6.7 10.1°
Maximum altitude 04:21:23 21° 250° (WSW) 1,362 5.8 10.9°
Drops below altitude 10° 04:24:41 10° 201° (SSW) 1,962 6.9 11.7°
Sets 04:27:27 0° 184° (S) 2,905 7.8 12.4°
